Вернуться в каталог

STARLINK-38086

АктивенСвязьSSO
NORAD 69998·PAYLOAD·🇺🇸 United States

Запущен Jul 11, 2026 с Vandenberg Space Force Base

Loading…

Ближайшие Пролёты (ближайшие 24 часа)

TLE

СвежийSource: CelesTrak SupGP

Эпоха: Sep 14, 2026, 21:09 UTC

1 69998C 26159Z   26257.88173611  .00059286  00000+0  39850-3 0  2575
2 69998  97.2846  99.7278 0001472  87.7507 236.5866 15.75147938    16

Отслеживайте STARLINK-38086 в реальном времени с AllMySat

Download on the App Store